[[{"header":{"parameterUnit":"m.s-1","parameterCategory":1,"la1":30.2991,"la2":30.254,"lo1":-89.0895,"lo2":-89.0444,"dy":0.0017,"dx":0.0017,"nx":28,"ny":28,"refTime":"2023-09-22T21:00:00:Z","depth":0,"parameterNumber":2,"parameterNumberName":"U-component_of_WINDS"},"data":[0,0,0,0,0,0,0,0,0,0,0,0,0,0,0,0,0,0,0,0,0,0,0,0,0,0,0,0,0,0,0,0,0,0,0,0,0,0,0,0,0,0,0,0,0,0,0,0,0,0,0,0,0,0,0,0,0,0,-1.9547,-1.9547,0,-1.957,-1.957,-1.957,-1.947,-1.9467,-1.9464,-1.9461,-1.9485,-1.9488,-1.9491,0,0,0,0,0,0,0,0,0,0,0,0,0,-1.9418,-1.9421,-1.9547,-1.9547,-1.9548,-1.957,-1.957,-1.957,-1.947,-1.9467,-1.9463,-1.946,-1.9484,-1.9488,-1.9492,0,0,0,0,0,0,0,0,0,0,0,0,0,-1.9461,-1.9422,-1.9547,-1.95,-1.9496,-1.957,-1.957,-1.957,-1.9471,-1.9467,-1.9462,-1.9458,-1.9482,-1.9487,-1.9492,-1.9612,0,0,-1.9508,-1.951,0,0,0,0,0,0,0,0,-1.9458,-1.9465,-1.9507,-1.9504,-1.9499,-1.9512,-1.9533,-1.9584,-1.9472,-1.9481,-1.9461,-1.9456,-1.9498,-1.9501,-1.9515,-1.9613,-1.9614,-1.9508,-1.9511,-1.9513,-1.9515,0,0,0,0,0,0,0,-1.9455,-1.9464,-1.9556,-1.9508,-1.9503,-1.9478,-1.948,-1.9542,-1.9514,-1.948,-1.9472,-1.9476,-1.9495,-1.951,-1.9515,-1.9614,-1.9508,-1.9513,-1.9516,-1.9518,-1.981,-1.9815,0,0,0,0,0,0,-1.9459,-1.9462,-1.9555,-1.9557,-1.9468,-1.9484,-1.9486,-1.9513,-1.9513,-1.9508,-1.948,-1.9472,-1.9504,-1.9509,-1.9515,-1.9654,-1.9513,-1.9518,-1.9521,-1.9806,-1.9811,-1.9816,0,0,0,0,0,0,-1.9456,-1.9468,-1.9554,-1.9507,-1.9517,-1.9491,-1.9522,-1.9515,-1.9531,-1.9513,-1.9507,-1.9501,-1.9501,-1.9508,-1.9588,-1.9654,-1.952,-1.9525,-1.98,-1.9807,-1.9814,-1.9934,0,0,0,0,0,0,-1.9453,-1.9468,-1.9513,-1.9509,-1.9519,-1.9627,-1.9526,-1.9519,-1.954,-1.9529,-1.9531,-1.9528,-1.9498,-1.9581,-1.9593,-1.9658,-1.9529,-1.9794,-1.9803,-1.9812,-1.9924,-1.9945,-1.9962,0,0,0,0,0,-1.9449,-1.9546,-1.9515,-1.9527,-1.9575,-1.9631,-1.9637,-1.96,-1.9546,-1.9591,-1.9579,-1.9528,-1.9645,-1.959,-1.9603,-1.9671,-1.979,-1.9801,-1.9811,-1.9916,-1.9941,-1.9962,0,0,0,0,0,0,-1.9557,-1.9544,-1.9511,-1.9609,-1.9622,-1.9614,-1.9669,-1.9628,-1.9657,-1.9645,-1.9599,-1.96,-1.9688,-1.9687,-1.9627,-1.9786,-1.9708,-1.9722,-1.9783,-1.9807,-1.9825,-1.9823,-1.9533,0,0,0,0,0,-1.9593,-1.964,-1.9626,-1.9714,-1.9722,-1.9695,-1.9718,-1.9689,-1.97,-1.9705,-1.9699,-1.9713,-1.9752,-1.9779,-1.9815,-1.9924,-1.9923,-1.9977,-1.9996,-2.0011,-2.0023,-2.0081,-2.0104,-1.9852,-1.9851,-1.9851,0,0,-1.9667,-1.9665,-1.9698,-1.9736,-1.9742,-1.9792,-1.97,-1.9756,-1.9792,-1.9714,-1.9789,-1.9785,-1.9797,-1.9892,-1.9933,-1.9894,-2.0093,-2.0025,-2.0037,-2.0041,-2.0094,-2.0118,-2.0139,-1.9859,-1.9857,-1.9856,0,0,-1.9826,-1.983,-1.9904,-1.9912,-1.9923,-1.9905,-1.9923,-1.9921,-1.9916,-1.999,-1.9932,-1.9975,-2.0044,-2.0055,-2.0069,-2.0233,-2.0187,-2.0246,-2.0345,-2.0401,-2.0421,-2.0438,-2.0497,-2.0518,-2.0259,-2.0259,-2.0259,0,-1.9916,-1.9988,-1.9947,-2.0007,-2.0026,-1.9957,-2.0032,-2.0042,-2.0064,-2.0079,-2.0034,-2.012,-2.0123,-2.0219,-2.0259,-2.0273,-2.0292,-2.0246,-2.0421,-2.0438,-2.0454,-2.0509,-2.0531,-2.0266,-2.0265,-2.0265,-2.0264,0,-2.0098,-2.0149,-2.0207,-2.023,-2.0256,-2.0323,-2.0292,-2.0323,-2.0292,-2.0278,-2.0355,-2.0357,-2.0391,-2.0412,-2.0382,-2.0504,-2.0479,-2.0429,-2.0349,-2.0486,-2.0537,-2.0558,-2.0276,-2.0274,-2.0272,-2.027,0,0,-2.0326,-2.0326,-2.0348,-2.0357,-2.0365,-2.0403,-2.0467,-2.0501,-2.0528,-2.0546,-2.0598,-2.0659,-2.0612,-2.0629,-2.06,-2.065,-2.0779,-2.0593,-2.0592,-2.0627,-2.0914,-2.0951,-2.0976,-2.0749,-2.0753,-2.0756,-2.0912,0,-2.0481,-2.059,-2.0556,-2.0666,-2.0713,-2.0648,-2.0704,-2.0715,-2.0704,-2.0742,-2.073,-2.0773,-2.0709,-2.0718,-2.0765,-2.0754,-2.0836,-2.0742,-2.0797,-2.08,-2.0795,-2.1003,-2.1042,-2.119,-2.0932,-2.0935,-2.0938,0,-2.0677,-2.0703,-2.0818,-2.0817,-2.0835,-2.0886,-2.0914,-2.0951,-2.0962,-2.0951,-2.097,-2.0931,-2.0994,-2.0915,-2.1001,-2.0938,-2.0958,-2.0957,-2.0961,-2.0964,-2.0877,-2.1011,-2.1236,-2.1258,-2.0969,-2.0966,-2.0964,0,-2.0831,-2.0894,-2.0971,-2.0981,-2.0983,-2.102,-2.1023,-2.1029,-2.1052,-2.1077,-2.1091,-2.1123,-2.114,-2.1166,-2.1137,-2.1082,-2.1227,-2.1146,-2.1219,-2.122,-2.1252,-2.125,-2.1483,-2.1267,-2.1267,-2.1266,-2.1266,0,-2.1007,-2.108,-2.104,-2.1087,-2.1167,-2.1127,-2.1207,-2.1202,-2.1209,-2.1254,-2.1201,-2.1245,-2.1204,-2.1244,-2.1221,-2.1296,-2.1304,-2.1297,-2.129,-2.1301,-2.1302,-2.1313,-2.1302,-2.1272,-2.1271,-2.127,-2.1269,0,-2.1192,-2.1168,-2.1247,-2.1243,-2.1243,-2.1302,-2.1298,-2.1342,-2.1327,-2.1386,-2.1397,-2.1375,-2.1419,-2.1392,-2.1438,-2.1422,-2.1519,-2.1499,-2.1516,-2.151,-2.1585,-2.1578,-2.1832,-2.1863,-2.1628,-2.1631,-2.1633,0,-2.1306,-2.136,-2.1362,-2.1388,-2.1394,-2.1438,-2.146,-2.1424,-2.1449,-2.1466,-2.1508,-2.1548,-2.1578,-2.1652,-2.164,-2.1674,-2.1653,-2.174,-2.1658,-2.1668,-2.1654,-2.1651,-2.1656,-2.1757,-2.1759,-2.1762,-2.1763,0,-2.151,-2.1496,-2.153,-2.1562,-2.1591,-2.1613,-2.1632,-2.1657,-2.162,-2.1652,-2.1696,-2.172,-2.1766,-2.1806,-2.1836,-2.1838,-2.1795,-2.179,-2.1808,-2.182,-2.1827,-2.1824,-2.156,-2.1784,-2.1782,-2.178,-2.1779,-2.1778,-2.1662,-2.1707,-2.1716,-2.1756,-2.1766,-2.1785,-2.1826,-2.1817,-2.1853,-2.1888,-2.1864,-2.1917,-2.1927,-2.1962,-2.197,-2.2011,-2.1976,-2.2003,-2.201,-2.2017,-2.2027,-2.1822,-2.2016,-2.2016,-2.2015,-2.2015,-2.2014,0,-2.1863,-2.1865,-2.1903,-2.1931,-2.1963,-2.192,-2.1938,-2.1968,-2.2015,-2.2028,-2.2059,-2.211,-2.2149,-2.2141,-2.2176,-2.221,-2.2191,-2.2221,-2.2217,-2.2218,-2.2057,-2.2037,-2.2235,-2.2235,-2.2235,-2.2235,-2.2235,-2.2235,-2.1971,-2.2045,-2.2033,-2.2112,-2.2113,-2.2165,-2.2179,-2.2196,-2.2206,-2.2266,-2.2298,-2.2292,-2.2296,-2.2331,-2.2365,-2.2362,-2.2377,-2.2413,-2.2403,-2.2252,-2.223,-2.2209,-2.219,-2.2417,-2.2417,-2.256,-2.2562,-2.2563]},{"header":{"parameterUnit":"m.s-1","parameterCategory":1,"la1":30.2991,"la2":30.254,"lo1":-89.0895,"lo2":-89.0444,"dy":0.0017,"dx":0.0017,"nx":28,"ny":28,"refTime":"2023-09-22T21:00:00:Z","depth":0,"parameterNumber":3,"parameterNumberName":"V-component_of_WINDS"},"data":[0,0,0,0,0,0,0,0,0,0,0,0,0,0,0,0,0,0,0,0,0,0,0,0,0,0,0,0,0,0,0,0,0,0,0,0,0,0,0,0,0,0,0,0,0,0,0,0,0,0,0,0,0,0,0,0,0,0,-1.2685,-1.2685,0,-1.2742,-1.2742,-1.2743,-1.277,-1.277,-1.277,-1.277,-1.2829,-1.283,-1.2832,0,0,0,0,0,0,0,0,0,0,0,0,0,-1.26,-1.2602,-1.2685,-1.2685,-1.2686,-1.2741,-1.2742,-1.2743,-1.277,-1.277,-1.277,-1.277,-1.2828,-1.283,-1.2832,0,0,0,0,0,0,0,0,0,0,0,0,0,-1.2645,-1.2602,-1.2685,-1.2706,-1.2709,-1.2741,-1.2742,-1.2743,-1.277,-1.277,-1.277,-1.277,-1.2828,-1.283,-1.2832,-1.2848,0,0,-1.284,-1.2841,0,0,0,0,0,0,0,0,-1.2642,-1.2648,-1.2702,-1.2705,-1.2708,-1.2749,-1.2734,-1.2778,-1.277,-1.2747,-1.277,-1.277,-1.2802,-1.2807,-1.2817,-1.285,-1.2853,-1.284,-1.2841,-1.2842,-1.2843,0,0,0,0,0,0,0,-1.2639,-1.2646,-1.2707,-1.2703,-1.2707,-1.2713,-1.272,-1.2742,-1.2774,-1.2749,-1.2751,-1.2757,-1.2804,-1.2815,-1.2819,-1.2854,-1.284,-1.2842,-1.2843,-1.2844,-1.2902,-1.2902,0,0,0,0,0,0,-1.2633,-1.2643,-1.2705,-1.2709,-1.2674,-1.2715,-1.2722,-1.2736,-1.2774,-1.278,-1.2757,-1.2758,-1.2811,-1.2816,-1.2821,-1.2841,-1.2842,-1.2844,-1.2846,-1.2901,-1.2902,-1.2902,0,0,0,0,0,0,-1.2631,-1.2638,-1.2703,-1.2677,-1.2685,-1.2716,-1.2732,-1.2737,-1.2748,-1.278,-1.2786,-1.2763,-1.2811,-1.2818,-1.2841,-1.2844,-1.2846,-1.2848,-1.2901,-1.2901,-1.2902,-1.2882,0,0,0,0,0,0,-1.2628,-1.2637,-1.2643,-1.2676,-1.2687,-1.2722,-1.2732,-1.2738,-1.2752,-1.2754,-1.2787,-1.2793,-1.2812,-1.2837,-1.2843,-1.2847,-1.285,-1.2901,-1.2901,-1.2902,-1.2882,-1.2881,-1.2881,0,0,0,0,0,-1.2625,-1.2636,-1.2643,-1.2651,-1.2695,-1.2722,-1.2728,-1.2749,-1.2752,-1.2759,-1.2779,-1.2792,-1.2842,-1.2839,-1.2846,-1.2851,-1.2901,-1.2901,-1.2902,-1.2883,-1.2882,-1.2881,0,0,0,0,0,0,-1.2602,-1.264,-1.2649,-1.2671,-1.2693,-1.2726,-1.2735,-1.2747,-1.2769,-1.277,-1.2796,-1.2803,-1.2823,-1.2839,-1.2835,-1.2868,-1.2873,-1.2875,-1.2856,-1.2855,-1.2854,-1.285,-1.2851,0,0,0,0,0,-1.2599,-1.2618,-1.265,-1.2666,-1.2677,-1.2704,-1.2716,-1.2731,-1.2755,-1.2764,-1.2786,-1.2809,-1.283,-1.2844,-1.2865,-1.2885,-1.2892,-1.2892,-1.2891,-1.289,-1.2891,-1.2902,-1.2902,-1.2902,-1.2902,-1.2902,0,0,-1.2595,-1.2618,-1.2628,-1.2662,-1.2681,-1.2699,-1.2712,-1.2731,-1.2745,-1.2767,-1.279,-1.2807,-1.2834,-1.2855,-1.2866,-1.287,-1.2892,-1.289,-1.2889,-1.2891,-1.2903,-1.2903,-1.2903,-1.2903,-1.2903,-1.2903,0,0,-1.2595,-1.2614,-1.2629,-1.2648,-1.2676,-1.2694,-1.2697,-1.2729,-1.2741,-1.2764,-1.2781,-1.2798,-1.2834,-1.2852,-1.2867,-1.2873,-1.2885,-1.2879,-1.2874,-1.2885,-1.2885,-1.2885,-1.2888,-1.2888,-1.288,-1.288,-1.288,0,-1.2585,-1.2614,-1.2636,-1.2654,-1.2669,-1.2689,-1.2705,-1.2722,-1.2755,-1.2765,-1.2768,-1.2813,-1.2833,-1.2859,-1.286,-1.2871,-1.2876,-1.2876,-1.2883,-1.2884,-1.2884,-1.2887,-1.2888,-1.2879,-1.2879,-1.288,-1.288,0,-1.2601,-1.262,-1.2629,-1.266,-1.2676,-1.2693,-1.2717,-1.273,-1.2743,-1.2761,-1.2784,-1.2808,-1.2835,-1.2842,-1.2855,-1.287,-1.2871,-1.2878,-1.2884,-1.2883,-1.2886,-1.2887,-1.2878,-1.2878,-1.2879,-1.2879,0,0,-1.2589,-1.2632,-1.2635,-1.2649,-1.2681,-1.2696,-1.2714,-1.2739,-1.275,-1.2772,-1.2788,-1.2817,-1.2824,-1.284,-1.2856,-1.2865,-1.2869,-1.2872,-1.2873,-1.287,-1.2886,-1.2881,-1.2881,-1.2877,-1.2877,-1.2877,-1.2884,0,-1.2594,-1.2626,-1.2646,-1.267,-1.2689,-1.2708,-1.2723,-1.2745,-1.2761,-1.2779,-1.2798,-1.2818,-1.2826,-1.2836,-1.2846,-1.2866,-1.2872,-1.2866,-1.2892,-1.2892,-1.2885,-1.2883,-1.2877,-1.2882,-1.2885,-1.2886,-1.2886,0,-1.2604,-1.2625,-1.2651,-1.2681,-1.2689,-1.2703,-1.2727,-1.2744,-1.2768,-1.278,-1.2797,-1.2812,-1.2832,-1.2836,-1.2863,-1.2858,-1.287,-1.2881,-1.2882,-1.2885,-1.2889,-1.2887,-1.2885,-1.2885,-1.2888,-1.2888,-1.2887,0,-1.2593,-1.2628,-1.2648,-1.266,-1.2695,-1.2704,-1.2719,-1.2743,-1.2757,-1.2778,-1.2788,-1.2811,-1.2824,-1.2842,-1.2863,-1.2864,-1.2888,-1.2894,-1.2898,-1.2898,-1.2903,-1.2903,-1.2903,-1.291,-1.291,-1.291,-1.291,0,-1.2597,-1.2612,-1.2644,-1.2656,-1.2673,-1.2696,-1.2713,-1.2729,-1.2751,-1.2767,-1.2785,-1.28,-1.2827,-1.2844,-1.2861,-1.2881,-1.2887,-1.2897,-1.2901,-1.2895,-1.2894,-1.2904,-1.2904,-1.291,-1.291,-1.291,-1.291,0,-1.2588,-1.2609,-1.2633,-1.2663,-1.2671,-1.2683,-1.2709,-1.2722,-1.2739,-1.2759,-1.2765,-1.2793,-1.2815,-1.2837,-1.2867,-1.2878,-1.2898,-1.2904,-1.2889,-1.2892,-1.2895,-1.2895,-1.2902,-1.2904,-1.2909,-1.2909,-1.2909,0,-1.2589,-1.2601,-1.2633,-1.2644,-1.2659,-1.2678,-1.2692,-1.2714,-1.2728,-1.2757,-1.2766,-1.2789,-1.2809,-1.2843,-1.2866,-1.2889,-1.2895,-1.2896,-1.2899,-1.2893,-1.2896,-1.2895,-1.2896,-1.2896,-1.2896,-1.2895,-1.2895,0,-1.2588,-1.2598,-1.2618,-1.2641,-1.2657,-1.2676,-1.2696,-1.2705,-1.2732,-1.2746,-1.2769,-1.2784,-1.2814,-1.2837,-1.2863,-1.2878,-1.2891,-1.2894,-1.2896,-1.2891,-1.2882,-1.2887,-1.2887,-1.2894,-1.2894,-1.2894,-1.2894,-1.2894,-1.2585,-1.2596,-1.262,-1.2641,-1.2658,-1.2676,-1.269,-1.2708,-1.2727,-1.2754,-1.2766,-1.2788,-1.2812,-1.2848,-1.2863,-1.2881,-1.2885,-1.2888,-1.2889,-1.2889,-1.2888,-1.2879,-1.2886,-1.2886,-1.2886,-1.2886,-1.2886,0,-1.2586,-1.2602,-1.2621,-1.2648,-1.2664,-1.2674,-1.2697,-1.271,-1.2729,-1.275,-1.2769,-1.2795,-1.2817,-1.2841,-1.2865,-1.2874,-1.2881,-1.288,-1.288,-1.2883,-1.2883,-1.2879,-1.2874,-1.2874,-1.2874,-1.2874,-1.2874,-1.2874,-1.2588,-1.2608,-1.262,-1.2649,-1.2665,-1.2687,-1.2699,-1.2716,-1.2733,-1.276,-1.2779,-1.2794,-1.2816,-1.2841,-1.2862,-1.2869,-1.2877,-1.2874,-1.2882,-1.2882,-1.2883,-1.2884,-1.288,-1.2875,-1.2875,-1.288,-1.288,-1.288]}]]